Location: Pebble Beach Sunset Acres
(33.0837°N, 96.4508°W)
Time: 03:29:21
(UTC+00:00)

Sich 1 - Pass Details

Date: 02 July 2022
Orbit: 593 x 623 km, 82.5° (Epoch: 07 August)

Event Time Altitude Azimuth Distance (km) Brightness Sun altitude
Exits shadow 10:11:09 14° 195° (SSW) 1,705 4.8 -13.0°
Maximum altitude 10:14:49 67° 277° (W) 655 3.0 -12.4°
Drops below altitude 10° 10:19:06 10° 0° (N) 1,946 6.2 -11.7°
Sets 10:21:19 0° 3° (N) 2,848 7.1 -11.4°
